Minneapolis, MN

10:55 AM CDT on May 25, 2017 (GMT -0500)
Minneapolis-Saint Paul International

Weather History for KMSP - July, 2013

Change the Weather History Date:

Thursday, July 11, 2013

  Actual Average Record
Temperature  
Mean Temperature 75 °F 74 °F  
Max Temperature 86 °F 84 °F 106 °F (1936)
Min Temperature 64 °F 64 °F 49 °F (1945)
Degree Days  
Heating Degree Days 0 0  
Month to date heating degree days 0 0  
Since 1 June heating degree days 42 44  
Since 1 July heating degree days 0 0  
Cooling Degree Days 10 9  
Month to date cooling degree days 134 97  
Year to date cooling degree days 351 297  
Since 1 June cooling degree days 298 255  
Growing Degree Days 25 (Base 50)    
Moisture  
Dew Point 56 °F    
Average Humidity 58    
Maximum Humidity 87    
Minimum Humidity 29    
Precipitation  
Precipitation 0.00 in 0.13 in 3.75 in (1909)
Month to date precipitation 0.37 1.41  
Year to date precipitation 21.23 15.24  
Snow  
Snow 0.00 in 0.00 in 0.00 in ()
Month to date snowfall 0.0 0.0  
Since 1 June snowfall 0.0 0.0  
Since 1 July snowfall 0.0 0.0  
Snow Depth 0.00 in    
Sea Level Pressure  
Sea Level Pressure 30.05 in    
Wind  
Wind Speed 6 mph (South)    
Max Wind Speed 16 mph    
Max Gust Speed 21 mph    
Visibility 7 miles    
Events      
T = Trace of Precipitation, MM = Missing Value Source: NWS Daily Summary

Daily Weather History Graph

Daily Weather History Graph

Search for Another Location

Airport or City:

Trip Planner

Search our weather history database for the weather conditions in past years. The results will help you decide how hot, cold, wet, or windy it might be!

Date:

Astronomy

Jul. 11, 2013 Rise Set
Actual Time 5:37 AM CDT 8:58 PM CDT
Civil Twilight 5:01 AM CDT 9:34 PM CDT
Nautical Twilight 4:14 AM CDT 10:21 PM CDT
Astronomical Twilight 3:14 AM CDT 11:20 PM CDT
Moon 9:07 AM CDT (7/11) 10:27 PM CDT (7/11)
Length of Visible Light 16h 33m
Length of Day
15h 21m
Waxing Crescent, 11% of the Moon is Illuminated
Jul 11
Waxing Crescent
Jul 15
First Quarter
Jul 22
Full
Jul 29
Last Quarter
Aug 6
New

Hourly Weather History & Observations

Time (CDT) Temp. Heat Index Dew Point Humidity Pressure Visibility Wind Dir Wind Speed Gust Speed Precip Events Conditions
12:53 AM 68.0 °F - 59.0 °F 73% 30.05 in 7.0 mi NW 4.6 mph - N/A   Clear
1:53 AM 69.1 °F - 57.9 °F 68% 30.06 in 7.0 mi Calm Calm - N/A   Clear
2:53 AM 68.0 °F - 57.9 °F 70% 30.07 in 6.0 mi Calm Calm - N/A   Haze
3:53 AM 66.9 °F - 57.9 °F 73% 30.08 in 5.0 mi Calm Calm - N/A   Haze
4:53 AM 64.9 °F - 60.1 °F 84% 30.08 in 6.0 mi Calm Calm - N/A   Haze
5:53 AM 64.9 °F - 60.1 °F 84% 30.10 in 5.0 mi Calm Calm - N/A   Haze
6:53 AM 66.0 °F - 61.0 °F 84% 30.11 in 4.0 mi Calm Calm - N/A   Haze
7:53 AM 69.1 °F - 61.0 °F 75% 30.11 in 6.0 mi Calm Calm - N/A   Haze
8:53 AM 72.0 °F - 61.0 °F 68% 30.10 in 7.0 mi Calm Calm - N/A   Clear
9:53 AM 77.0 °F - 57.9 °F 52% 30.09 in 8.0 mi Calm Calm - N/A   Clear
10:53 AM 79.0 °F - 54.0 °F 42% 30.09 in 8.0 mi SSE 8.1 mph - N/A   Clear
11:53 AM 80.1 °F 80.0 °F 54.0 °F 40% 30.08 in 9.0 mi South 3.5 mph - N/A   Clear
12:53 PM 82.0 °F 81.3 °F 54.0 °F 38% 30.07 in 9.0 mi South 6.9 mph - N/A   Clear
1:53 PM 82.9 °F 81.8 °F 53.1 °F 36% 30.05 in 9.0 mi SSW 10.4 mph 17.3 mph N/A   Clear
2:53 PM 84.9 °F 83.6 °F 55.0 °F 36% 30.04 in 9.0 mi South 10.4 mph - N/A   Partly Cloudy
3:53 PM 84.9 °F 83.6 °F 55.0 °F 36% 30.03 in 7.0 mi SSE 10.4 mph - N/A   Partly Cloudy
4:53 PM 86.0 °F 84.0 °F 53.1 °F 32% 30.02 in 7.0 mi South 12.7 mph - N/A   Clear
5:53 PM 86.0 °F - 50.0 °F 29% 30.00 in 7.0 mi SSE 15.0 mph 20.7 mph N/A   Clear
6:53 PM 84.9 °F - 52.0 °F 32% 29.99 in 7.0 mi South 12.7 mph - N/A   Partly Cloudy
7:53 PM 82.9 °F 81.9 °F 54.0 °F 37% 29.98 in 7.0 mi SE 9.2 mph - N/A   Clear
8:53 PM 81.0 °F 80.5 °F 54.0 °F 39% 29.97 in 7.0 mi SSE 9.2 mph - N/A   Partly Cloudy
9:53 PM 80.1 °F 80.1 °F 55.0 °F 42% 29.99 in 9.0 mi SSE 8.1 mph - N/A   Partly Cloudy
10:53 PM 77.0 °F - 55.9 °F 48% 29.99 in 10.0 mi SSE 10.4 mph - N/A   Partly Cloudy
11:53 PM 75.9 °F - 55.9 °F 50% 29.99 in 10.0 mi South 12.7 mph - N/A   Partly Cloudy